[[{"header":{"parameterUnit":"m.s-1","parameterCategory":1,"la1":30.2991,"la2":30.254,"lo1":-89.0895,"lo2":-89.0444,"dy":0.0017,"dx":0.0017,"nx":28,"ny":28,"refTime":"2025-05-01T09:00:00:Z","depth":0,"parameterNumber":2,"parameterNumberName":"U-component_of_WINDS"},"data":[0,0,0,0,0,0,0,0,0,0,0,0,0,0,0,0,0,0,0,0,0,0,0,0,0,0,0,0,0,0,0,0,0,0,0,0,0,0,0,0,0,0,0,0,0,0,0,0,0,0,0,0,0,0,0,0,0,0,-1.2859,-1.286,0,-1.2936,-1.2937,-1.2938,-1.2957,-1.2957,-1.2956,-1.2956,-1.3038,-1.3041,-1.3043,0,0,0,0,0,0,0,0,0,0,0,0,0,-1.2733,-1.2735,-1.2859,-1.286,-1.2861,-1.2936,-1.2937,-1.2938,-1.2957,-1.2957,-1.2956,-1.2955,-1.3037,-1.3041,-1.3044,0,0,0,0,0,0,0,0,0,0,0,0,0,-1.2797,-1.2736,-1.2859,-1.2879,-1.2882,-1.2936,-1.2937,-1.2938,-1.2957,-1.2956,-1.2956,-1.2955,-1.3036,-1.304,-1.3044,-1.3084,0,0,-1.3056,-1.3058,0,0,0,0,0,0,0,0,-1.2793,-1.2801,-1.2875,-1.2878,-1.2881,-1.2936,-1.2923,-1.2987,-1.2957,-1.2929,-1.2956,-1.2955,-1.3005,-1.3012,-1.3028,-1.3088,-1.3091,-1.3057,-1.3059,-1.3061,-1.3062,0,0,0,0,0,0,0,-1.2788,-1.2798,-1.289,-1.2876,-1.288,-1.2886,-1.2894,-1.2935,-1.297,-1.2931,-1.2933,-1.2941,-1.3007,-1.3024,-1.303,-1.3093,-1.3057,-1.306,-1.3063,-1.3064,-1.3192,-1.3193,0,0,0,0,0,0,-1.278,-1.2794,-1.2887,-1.2892,-1.2834,-1.2889,-1.2898,-1.2919,-1.297,-1.2977,-1.2942,-1.2942,-1.3017,-1.3025,-1.3033,-1.3085,-1.3061,-1.3065,-1.3067,-1.3191,-1.3192,-1.3194,0,0,0,0,0,0,-1.2777,-1.2788,-1.2884,-1.2843,-1.2856,-1.2892,-1.2915,-1.2921,-1.2939,-1.2978,-1.2985,-1.2953,-1.3017,-1.3027,-1.3072,-1.3088,-1.3066,-1.307,-1.319,-1.3192,-1.3193,-1.3188,0,0,0,0,0,0,-1.2773,-1.2787,-1.2801,-1.2844,-1.2858,-1.292,-1.2916,-1.2923,-1.2945,-1.2946,-1.299,-1.2997,-1.3017,-1.3065,-1.3076,-1.3093,-1.3073,-1.3189,-1.3191,-1.3193,-1.3187,-1.3189,-1.3191,0,0,0,0,0,-1.2769,-1.2797,-1.2802,-1.2813,-1.2877,-1.2921,-1.2929,-1.2951,-1.2946,-1.2962,-1.2988,-1.2996,-1.3084,-1.307,-1.3081,-1.31,-1.3188,-1.319,-1.3192,-1.3186,-1.3189,-1.3191,0,0,0,0,0,0,-1.2757,-1.2803,-1.2809,-1.2851,-1.2882,-1.2924,-1.2944,-1.2953,-1.2987,-1.2986,-1.3013,-1.3023,-1.3066,-1.3087,-1.3071,-1.3143,-1.3136,-1.3141,-1.3127,-1.313,-1.3132,-1.3127,-1.3077,0,0,0,0,0,-1.2759,-1.2789,-1.2828,-1.2862,-1.2877,-1.2908,-1.2928,-1.2942,-1.2975,-1.2989,-1.3018,-1.3051,-1.3087,-1.3109,-1.3144,-1.319,-1.3201,-1.3209,-1.3211,-1.3212,-1.3217,-1.3245,-1.3249,-1.3201,-1.3201,-1.3201,0,0,-1.2764,-1.2793,-1.281,-1.286,-1.2886,-1.2919,-1.2919,-1.2953,-1.2978,-1.2994,-1.3038,-1.3061,-1.31,-1.3145,-1.3167,-1.3165,-1.3232,-1.3215,-1.3216,-1.322,-1.3248,-1.3252,-1.3256,-1.3202,-1.3202,-1.3202,0,0,-1.279,-1.2814,-1.2845,-1.2871,-1.2909,-1.2929,-1.2937,-1.2978,-1.2993,-1.3037,-1.3051,-1.3082,-1.3142,-1.317,-1.3192,-1.323,-1.324,-1.3241,-1.3252,-1.3279,-1.3283,-1.3287,-1.3302,-1.3308,-1.3244,-1.3244,-1.3244,0,-1.2792,-1.284,-1.2861,-1.2895,-1.2918,-1.2933,-1.2966,-1.299,-1.3038,-1.3055,-1.3051,-1.3128,-1.3155,-1.3209,-1.3218,-1.3234,-1.3246,-1.3236,-1.328,-1.3284,-1.3288,-1.3304,-1.3309,-1.3244,-1.3244,-1.3244,-1.3244,0,-1.2841,-1.2875,-1.2896,-1.2941,-1.2966,-1.3,-1.3028,-1.3051,-1.3063,-1.3084,-1.3131,-1.3164,-1.3206,-1.322,-1.3232,-1.3276,-1.3274,-1.3275,-1.3269,-1.3292,-1.3307,-1.3313,-1.3244,-1.3244,-1.3244,-1.3244,0,0,-1.2862,-1.2919,-1.2927,-1.2948,-1.2992,-1.3019,-1.3054,-1.3095,-1.3115,-1.3148,-1.318,-1.3231,-1.3233,-1.3258,-1.3274,-1.3297,-1.3328,-1.3296,-1.3298,-1.3303,-1.3381,-1.3381,-1.3388,-1.3334,-1.3335,-1.3336,-1.3379,0,-1.2895,-1.2957,-1.2977,-1.303,-1.3062,-1.3078,-1.3109,-1.314,-1.3161,-1.3194,-1.3218,-1.3254,-1.3253,-1.3268,-1.3292,-1.3319,-1.3345,-1.3316,-1.3366,-1.3368,-1.3358,-1.3395,-1.3395,-1.3434,-1.3385,-1.3386,-1.3386,0,-1.2942,-1.2975,-1.303,-1.3071,-1.3086,-1.3113,-1.3153,-1.3183,-1.3219,-1.3233,-1.3262,-1.3276,-1.3316,-1.3306,-1.3363,-1.3343,-1.3365,-1.3382,-1.3384,-1.3391,-1.338,-1.3405,-1.3446,-1.3453,-1.3395,-1.3395,-1.3394,0,-1.2954,-1.3012,-1.3053,-1.3071,-1.3119,-1.3139,-1.316,-1.3196,-1.322,-1.3255,-1.3272,-1.3311,-1.3334,-1.3365,-1.3391,-1.3381,-1.3446,-1.3438,-1.3461,-1.3461,-1.3475,-1.3474,-1.3522,-1.3486,-1.3486,-1.3486,-1.3485,0,-1.2989,-1.3023,-1.3059,-1.3085,-1.3124,-1.3148,-1.3187,-1.3209,-1.3241,-1.3273,-1.3289,-1.3319,-1.335,-1.3384,-1.3405,-1.345,-1.3459,-1.3474,-1.3479,-1.3473,-1.3472,-1.3489,-1.3488,-1.3487,-1.3487,-1.3487,-1.3486,0,-1.301,-1.3035,-1.3082,-1.3124,-1.3135,-1.3162,-1.32,-1.3226,-1.3248,-1.3288,-1.3299,-1.3334,-1.3376,-1.3404,-1.3458,-1.3472,-1.3521,-1.3525,-1.3509,-1.3512,-1.3534,-1.3532,-1.3596,-1.3607,-1.3561,-1.3562,-1.3562,0,-1.3032,-1.3058,-1.3103,-1.3125,-1.3146,-1.3181,-1.3206,-1.3231,-1.3256,-1.3301,-1.3322,-1.3365,-1.34,-1.3467,-1.3498,-1.354,-1.3547,-1.3566,-1.3553,-1.3547,-1.355,-1.3549,-1.3553,-1.3569,-1.3569,-1.3569,-1.357,0,-1.3069,-1.308,-1.3114,-1.3153,-1.3181,-1.3213,-1.3246,-1.3263,-1.3295,-1.3322,-1.3365,-1.3392,-1.3447,-1.349,-1.3535,-1.3559,-1.3571,-1.3573,-1.3581,-1.3577,-1.3567,-1.3575,-1.3517,-1.3572,-1.3572,-1.3572,-1.3571,-1.3571,-1.3092,-1.3117,-1.3153,-1.3191,-1.3218,-1.3248,-1.3275,-1.3301,-1.3336,-1.3382,-1.3395,-1.344,-1.3478,-1.354,-1.3565,-1.3602,-1.36,-1.3611,-1.3614,-1.3617,-1.3618,-1.3559,-1.361,-1.361,-1.361,-1.361,-1.361,0,-1.3132,-1.3156,-1.319,-1.3235,-1.3265,-1.3271,-1.3308,-1.3334,-1.3372,-1.3406,-1.3441,-1.3491,-1.3533,-1.3568,-1.3613,-1.3636,-1.3642,-1.3647,-1.3646,-1.3652,-1.3616,-1.3606,-1.3641,-1.3641,-1.3641,-1.3641,-1.3641,-1.3641,-1.3156,-1.3199,-1.3215,-1.3273,-1.3297,-1.334,-1.3361,-1.339,-1.3417,-1.3472,-1.3507,-1.3529,-1.3564,-1.3611,-1.3651,-1.3661,-1.3678,-1.3681,-1.3692,-1.3658,-1.3654,-1.3651,-1.3642,-1.3684,-1.3684,-1.3726,-1.3726,-1.3727]},{"header":{"parameterUnit":"m.s-1","parameterCategory":1,"la1":30.2991,"la2":30.254,"lo1":-89.0895,"lo2":-89.0444,"dy":0.0017,"dx":0.0017,"nx":28,"ny":28,"refTime":"2025-05-01T09:00:00:Z","depth":0,"parameterNumber":3,"parameterNumberName":"V-component_of_WINDS"},"data":[0,0,0,0,0,0,0,0,0,0,0,0,0,0,0,0,0,0,0,0,0,0,0,0,0,0,0,0,0,0,0,0,0,0,0,0,0,0,0,0,0,0,0,0,0,0,0,0,0,0,0,0,0,0,0,0,0,0,7.2243,7.2245,0,7.2455,7.2457,7.2459,7.2484,7.2482,7.2479,7.2478,7.2682,7.2689,7.2696,0,0,0,0,0,0,0,0,0,0,0,0,0,7.1847,7.1855,7.2243,7.2245,7.2248,7.2454,7.2457,7.246,7.2484,7.2481,7.2479,7.2477,7.2679,7.2688,7.2697,0,0,0,0,0,0,0,0,0,0,0,0,0,7.2035,7.1857,7.2242,7.2285,7.2291,7.2454,7.2457,7.2461,7.2485,7.2481,7.2478,7.2475,7.2677,7.2687,7.2698,7.2829,0,0,7.2732,7.2737,0,0,0,0,0,0,0,0,7.2024,7.2049,7.2276,7.2283,7.229,7.244,7.2393,7.2584,7.2485,7.2411,7.2477,7.2474,7.2603,7.262,7.2666,7.2838,7.2847,7.2733,7.274,7.2744,7.2748,0,0,0,0,0,0,0,7.2011,7.204,7.2326,7.2279,7.2288,7.229,7.2313,7.2429,7.2521,7.2417,7.2419,7.2445,7.2606,7.2655,7.2671,7.285,7.2733,7.2742,7.2749,7.2754,7.3138,7.3141,0,0,0,0,0,0,7.1992,7.2029,7.2319,7.2333,7.2147,7.23,7.2326,7.2394,7.252,7.2537,7.2447,7.2445,7.2638,7.2658,7.2678,7.2838,7.2744,7.2755,7.2761,7.3134,7.3139,7.3143,0,0,0,0,0,0,7.1983,7.2018,7.2311,7.2182,7.2219,7.231,7.2387,7.24,7.245,7.2543,7.2558,7.2482,7.2636,7.2663,7.2792,7.2846,7.276,7.277,7.313,7.3136,7.3141,7.316,0,0,0,0,0,0,7.1972,7.2014,7.2068,7.2183,7.2226,7.2424,7.239,7.2407,7.247,7.247,7.2579,7.2594,7.2636,7.2775,7.2803,7.2859,7.2778,7.3126,7.3133,7.3139,7.3155,7.3165,7.3174,0,0,0,0,0,7.1958,7.2062,7.207,7.2105,7.2295,7.2428,7.2452,7.2501,7.2475,7.2527,7.2587,7.2591,7.2836,7.2788,7.2819,7.288,7.3122,7.3131,7.3138,7.315,7.3163,7.3174,0,0,0,0,0,0,7.1946,7.2078,7.2088,7.2234,7.232,7.2431,7.2499,7.2513,7.2605,7.26,7.2653,7.2678,7.2804,7.2855,7.2799,7.3012,7.2976,7.2991,7.2974,7.2987,7.2997,7.298,7.2788,0,0,0,0,0,7.1961,7.2062,7.217,7.2287,7.2331,7.2408,7.2467,7.2498,7.2587,7.2622,7.2691,7.2774,7.287,7.2932,7.3025,7.3163,7.3185,7.322,7.3229,7.3237,7.3248,7.3323,7.3339,7.3169,7.3169,7.3169,0,0,7.1991,7.2076,7.2135,7.2287,7.2358,7.2456,7.2438,7.2543,7.2616,7.2637,7.2764,7.2817,7.2913,7.3047,7.3109,7.3094,7.3301,7.3247,7.3253,7.326,7.3333,7.3349,7.3363,7.3175,7.3174,7.3173,0,0,7.2098,7.2173,7.228,7.2352,7.246,7.2511,7.2536,7.2646,7.2684,7.2813,7.2831,7.2916,7.308,7.3148,7.3204,7.3337,7.3343,7.3365,7.3415,7.3488,7.3501,7.3513,7.3558,7.3574,7.3377,7.3377,7.3377,0,7.2121,7.2275,7.2331,7.2438,7.2502,7.2531,7.2637,7.2702,7.2833,7.2875,7.2857,7.3064,7.313,7.328,7.3313,7.3357,7.3385,7.3352,7.3495,7.3508,7.352,7.3564,7.3581,7.3379,7.3378,7.3378,7.3378,0,7.2297,7.2404,7.2476,7.2607,7.268,7.2785,7.2853,7.292,7.2945,7.2996,7.3125,7.3207,7.3317,7.3355,7.3378,7.3507,7.3494,7.3485,7.3449,7.3537,7.3579,7.3597,7.3381,7.3381,7.338,7.338,0,0,7.24,7.2563,7.2588,7.2648,7.277,7.2851,7.2956,7.3068,7.3123,7.3212,7.3299,7.3439,7.3431,7.3494,7.3526,7.359,7.3688,7.3573,7.3575,7.3589,7.3832,7.3837,7.3856,7.3694,7.3697,7.37,7.3824,0,7.2519,7.2713,7.2766,7.2928,7.3025,7.3054,7.3145,7.3227,7.3278,7.3365,7.3419,7.3517,7.3501,7.3539,7.3604,7.3662,7.3737,7.3654,7.3771,7.3775,7.3745,7.3879,7.3884,7.3997,7.3841,7.3843,7.3846,0,7.2684,7.2782,7.2954,7.3064,7.3107,7.3188,7.3295,7.3379,7.3472,7.3504,7.3576,7.3601,7.3708,7.3668,7.3814,7.3757,7.3808,7.3844,7.3849,7.386,7.3814,7.3891,7.4035,7.4051,7.3872,7.387,7.3868,0,7.274,7.2914,7.304,7.309,7.3221,7.3278,7.3334,7.3425,7.3488,7.358,7.3621,7.3722,7.3777,7.3853,7.3904,7.3871,7.4045,7.401,7.4071,7.407,7.4105,7.4102,7.4257,7.4141,7.4141,7.414,7.414,0,7.2866,7.297,7.3067,7.3144,7.326,7.3319,7.3431,7.3488,7.3568,7.3654,7.3683,7.3762,7.3826,7.3912,7.3952,7.4065,7.409,7.4116,7.4125,7.4113,7.4109,7.4145,7.4138,7.4145,7.4144,7.4143,7.4142,0,7.2948,7.3017,7.3156,7.3271,7.3301,7.3382,7.3478,7.3551,7.3604,7.3712,7.374,7.3821,7.3924,7.3984,7.4112,7.4139,7.4264,7.427,7.4234,7.4238,7.4296,7.4289,7.4478,7.4505,7.4372,7.4373,7.4374,0,7.3023,7.3104,7.3229,7.3291,7.335,7.3448,7.3514,7.3575,7.3642,7.3754,7.3813,7.392,7.4007,7.417,7.4237,7.4335,7.4343,7.4403,7.4357,7.4342,7.4342,7.4336,7.4343,7.4409,7.441,7.4411,7.4412,0,7.3149,7.318,7.3277,7.3386,7.3466,7.3553,7.364,7.3687,7.3761,7.3834,7.3943,7.4011,7.4145,7.4248,7.4352,7.4405,7.442,7.4426,7.4445,7.4433,7.4408,7.442,7.4253,7.4421,7.442,7.442,7.4419,7.4419,7.3229,7.3303,7.3402,7.3509,7.3581,7.3662,7.3737,7.3801,7.3894,7.401,7.4039,7.4152,7.424,7.4383,7.4439,7.4525,7.4514,7.4542,7.4549,7.4555,7.4556,7.4396,7.4544,7.4544,7.4544,7.4544,7.4544,0,7.3355,7.3422,7.352,7.3642,7.3725,7.3737,7.3833,7.39,7.4001,7.4085,7.4172,7.4295,7.4396,7.4473,7.4575,7.4629,7.4638,7.4653,7.4649,7.4661,7.456,7.4533,7.4644,7.4644,7.4644,7.4644,7.4644,7.4644,7.3431,7.3556,7.3598,7.3758,7.3822,7.3937,7.3991,7.4064,7.4131,7.4269,7.4355,7.4406,7.4486,7.4594,7.4686,7.4705,7.474,7.4754,7.4774,7.4679,7.4668,7.4657,7.4632,7.4762,7.4762,7.4867,7.4868,7.4869]}]]